STARLINK-35592, 66136

Orbit data source: Space-Track

STARLINK-35592, 66136 is a payload satellite owned by SpaceX/Seattle (US) in LEO that was launched on Wed, 22 Oct 2025 UTC via an FALCON 9 launch vehicle from the Air Force Western Test Range (AFWTR). Payload-class satellites include a variety of spacecraft equipped with specific instruments for various scientific and technological missions. These include communications satellites like Starlink; space stations such as the ISS; scientific satellites like the Hubble; Earth observation satellites from companies like Planet Labs, Umbra, and HawkEye 360; GPS; miniature CubeSats for education and research; and military/defense satellites.

Loading next visibility...
Identifier
66136, 2025-237Y
Orbit
LEO
Country
Flag of USUS
Related business
Manufacturer
SpaceX/Seattle
Mission
Operational Commercial Communications
Bus & Motor
STARLINK V2MO, Unknown motor
Mass
575 kg wet, ~530 kg dry
Launch date (UTC)
2025-10-22 (3 months ago)
Launch vehicle
FALCON 9
Launch site
Air Force Western Test Range (AFWTR)
Object type
Payload
Rocket body
Debris
Shape & HBR
Box + 2 Pan, 17.7 m
Radar Cross Section
36.964 m²

Expand to show TLE details & history
Last TLE update: 17 hours ago

TLE from 17 hours ago
0 STARLINK-35592
1 66136U 25237Y   26014.04999302  .00046233  00000-0  10819-2 0  9999
2 66136  53.1604 294.9311 0009066 241.8937 118.1153 15.41662399 14222
Epoch: 2026-01-14T01:11Z
TLE epoch observation values (Epoch: 2026-01-14T01:11:59.396Z)
Latitude
-0.00003°
Longitude
163.41004°
Altitude
445.025 km
Speed
7.645 km/s
True Right ascension
19h 39m 43s
True Declination
0° 00' 00"
Sunlit
Object was in daylight at epoch
Visualization orbit readout
Latitude
Unknown
Longitude
Unknown
Altitude
Unknown
Speed
Unknown
Apparent Right ascension
Unknown
Apparent Declination
Unknown
Sunlit
N/A
Visualization observer readout
Local Sidereal Time
18:19:11
Azimuth
Unknown
Elevation
Unknown
Doppler factor
Unknown
Orbital elements
Apogee altitude
447.643 km
Perigee altitude
435.278 km
Semi-major axis
6,819.597 km
Eccentricity
0.00091
Inclination
53.1604°
RAAN
294.9311°
Arg. of periapsis
241.8937°
True anomaly
118.20688°
Mean anomaly
118.1153°
Eccentric anomaly
118.1611°
Mean motion
3.85394 °/min
Orbital period
93.41 mins
BSTAR
0.0010819
Loading maneuver chart data...
Computing Atmospheric mass density...
Loading historical data...
Loading historical data...
Loading historical data...
Loading historical data...
Loading historical data...
Loading historical data...
Loading historical data...

Documentation

Showing up to 5 results
|